Location: Bennemühlen
(52.5740°N, 9.7135°E)
Time: 16:57:15
(UTC+00:00)

ARIANE 6 FM1 Upper Stage - Pass Details

Date: 19 May 2025
Orbit: 531 x 610 km, 62.0° (Epoch: 16 June)

Event Time Altitude Azimuth Distance (km) Brightness Sun altitude
Rises 20:18:32 0° 216° (SW) 2,663 6.0 -7.7°
Reaches altitude 10° 20:20:44 10° 212° (SSW) 1,777 5.1 -7.9°
Maximum altitude 20:24:38 58° 133° (SE) 630 2.6 -8.3°
Drops below altitude 10° 20:28:37 10° 55° (NE) 1,805 5.2 -8.7°
Sets 20:30:52 0° 51° (NE) 2,710 6.2 -8.9°
